Regional Weather Roundup
Issued by NWS

Home | Current Version | Previous Version | Graphics & Text | Print | Product List | Glossary Off
Versions: 1 2 3 4 5 6 7 8 9 10 11 12 13 14 15 16 17 18 19 20 21 22 23 24 25 26 27 28 29 30 31 32 33 34 35 36 37 38 39 40 41 42 43 44 45 46 47 48 49 50

000
ASUS43 KTOP 291059
RWRKS

WEATHER ROUNDUP FOR KANSAS
NATIONAL WEATHER SERVICE GOODLAND KS
600 AM CDT FRI JUL 29 2016

NOTE:  "FAIR" INDICATES FEW OR NO CLOUDS BELOW 12,000 FEET WITH NO
SIGNIFICANT WEATHER AND/OR OBSTRUCTIONS TO VISIBILITY.

KSZ001>006-013>018-027>032-041>047-291200-
NORTHWEST KANSAS

CITY           SKY/WX    TMP DP  RH WIND       PRES   REMARKS
GOODLAND       CLOUDY    61  60  97 SW5       30.09F
HAYS           CLOUDY    68  61  77 NW7       30.05R
HILL CITY      MOCLDY    66  65  96 N3        30.05S FOG
RUSSELL        LGT RAIN  68  66  93 NW6       30.03R
$$

KSZ061>065-074>080-084>089-291200-
SOUTHWEST KANSAS

CITY           SKY/WX    TMP DP  RH WIND       PRES   REMARKS
DODGE CITY     CLOUDY    66  64  93 N15       30.10R
ELKHART          N/A     72  56  57 SW5         N/A
GARDEN CITY    CLOUDY    64  61  90 NE12      30.08R
GREAT BEND     CLOUDY    66  61  82 W9        30.06R
LIBERAL        MOCLDY    70  61  73 SW9       30.04F
$$

KSZ066>073-081>083-090>101-291200-
SOUTHEAST KANSAS

CITY           SKY/WX    TMP DP  RH WIND       PRES   REMARKS
CHANUTE        CLOUDY    69  67  93 NW3       29.98R
COFFEYVILLE    MOCLDY    70  69  97 N7        29.97R
HUTCHINSON     CLOUDY    68  66  93 N3        30.01R
NEWTON         CLOUDY    67  66  97 CALM      30.01S
PARSONS        MOCLDY    68  67  96 CALM      29.99R
WICHITA INTL   CLOUDY    71  68  90 W5        29.99R
WICHITA JABRA  CLOUDY    69  68  96 E5        29.99S
WINFIELD       CLOUDY    71  65  81 NE7       30.01R
$$

KSZ007>012-019>026-033>040-048>060-102>105-291200-
NORTHEAST KANSAS

CITY           SKY/WX    TMP DP  RH WIND       PRES   REMARKS
CONCORDIA      CLEAR     64  62  93 SE5       30.02R
EMPORIA        CLOUDY    68  66  93 CALM      29.99R
LAWRENCE       PTCLDY    66  65  96 NW3       29.97R
MANHATTAN      CLOUDY    68  67  96 W3        29.99R
OLATHE IND     CLEAR     67  67 100 NW7       29.98R
OLATHE EXE     CLEAR     69  67  93 N3        29.97R
SALINA         CLOUDY    69  67  93 W3        30.02R
TOPEKA BILLARD PTCLDY    67  65  93 CALM      29.98R
TOPEKA FORBES  CLOUDY    68  66  93 W3        29.99R
$$




USA.gov is the U.S. government's official web portal to all federal, state and local government web resources and services.